Date String (YYYY-MM-DD hh:mm:ss) UTC,Instrument flags,Ambient pressure (hPa),Sample flow (lpm),Bypass flow (lpm),Sample temperature (°C),Ambient temperature (°C),ASC tube jacket temperature (°C),LED temperature (°C),Box temperature (°C),Sample RH (%),Span deviation,Mass concentration (μg/m³),Mass concentration (μg/m³),Mass concentration (μg/m³)
DateTimeUTC,F1_M11,P_M11,Q1_M11,Q2_M11,T1_M11,T2_M11,T3_M11,T4_M11,T5_M11,U1_M11,ZSPAN_M11,X0_M11,X2_M11,X1_M11
2021-11-30 20:00:00,,0828.2,4.99,0.00,27.8,27.1,00.0,36.6,29.6,12.5,0000.0,0013.89,0004.56,0003.77
2021-11-30 20:01:00,,0828.1,5.01,0.00,27.8,27.1,00.0,36.6,29.6,12.5,0000.0,0014.27,0004.64,0003.81
2021-11-30 20:02:00,,0828.1,4.99,0.00,27.8,27.1,00.0,36.6,29.6,12.5,0000.0,0014.71,0004.71,0003.84
2021-11-30 20:03:00,,0828.1,4.99,0.00,27.8,27.2,00.0,36.7,29.6,12.5,0000.0,0015.19,0004.73,0003.87
2021-11-30 20:04:00,,0828.1,5.01,0.00,27.8,27.2,00.0,36.7,29.6,12.6,0000.0,0015.67,0004.79,0003.90
2021-11-30 20:05:00,,0828.0,5.00,0.00,27.8,27.2,00.0,36.7,29.6,12.5,0000.0,0015.70,0004.82,0003.93
2021-11-30 20:06:00,,0827.9,5.00,0.00,27.8,27.2,00.0,36.7,29.7,12.4,0000.0,0016.24,0004.84,0003.96
2021-11-30 20:07:00,,0828.0,4.98,0.00,27.9,27.2,00.0,36.7,29.7,12.5,0000.0,0016.99,0004.88,0003.97
2021-11-30 20:08:00,,0827.9,5.01,0.00,27.9,27.2,00.0,36.7,29.7,12.5,0000.0,0016.98,0004.89,0003.99
2021-11-30 20:09:00,,0827.9,4.99,0.00,27.9,27.3,00.0,36.7,29.7,12.5,0000.0,0016.24,0004.89,0004.02
2021-11-30 20:10:00,,0827.9,5.01,0.00,27.9,27.3,00.0,36.8,29.7,12.5,0000.0,0016.64,0004.97,0004.04
2021-11-30 20:11:00,,0827.9,5.00,0.00,27.9,27.3,00.0,36.8,29.7,12.5,0000.0,0016.63,0005.04,0004.07
2021-11-30 20:12:00,,0827.7,4.99,0.00,27.9,27.3,00.0,36.8,29.7,12.4,0000.0,0016.21,0005.06,0004.10
2021-11-30 20:13:00,,0827.7,5.02,0.00,27.9,27.3,00.0,36.8,29.8,12.5,0000.0,0016.49,0005.12,0004.13
2021-11-30 20:14:00,,0827.7,4.99,0.00,28.0,27.3,00.0,36.8,29.8,12.4,0000.0,0015.63,0005.17,0004.16
2021-11-30 20:15:00,,0827.7,5.01,0.00,28.0,27.3,00.0,36.8,29.8,12.4,0000.0,0015.07,0005.19,0004.21
2021-11-30 20:16:00,,0827.6,4.99,0.00,28.0,27.3,00.0,36.8,29.8,12.3,0000.0,0015.12,0005.23,0004.24
2021-11-30 20:17:00,,0827.5,5.00,0.00,28.0,27.3,00.0,36.8,29.8,12.3,0000.0,0014.58,0005.26,0004.28
2021-11-30 20:18:00,,0827.5,4.99,0.00,28.0,27.3,00.0,36.9,29.8,12.3,0000.0,0013.83,0005.33,0004.32
2021-11-30 20:19:00,,0827.5,5.00,0.00,28.0,27.3,00.0,36.9,29.8,12.3,0000.0,0014.66,0005.42,0004.35
2021-11-30 20:20:00,,0827.5,5.01,0.00,28.0,27.4,00.0,36.9,29.8,12.3,0000.0,0015.36,0005.50,0004.40
2021-11-30 20:21:00,,0827.5,4.99,0.00,28.0,27.4,00.0,36.9,29.8,12.3,0000.0,0015.37,0005.50,0004.44
2021-11-30 20:22:00,,0827.5,5.00,0.00,28.0,27.4,00.0,36.9,29.8,12.3,0000.0,0015.40,0005.50,0004.48
2021-11-30 20:23:00,,0827.4,5.01,0.00,28.0,27.4,00.0,36.9,29.8,12.2,0000.0,0016.42,0005.57,0004.52
2021-11-30 20:24:00,,0827.4,4.99,0.00,28.1,27.4,00.0,36.9,29.9,12.2,0000.0,0016.48,0005.56,0004.55
2021-11-30 20:25:00,,0827.4,5.01,0.00,28.1,27.4,00.0,36.9,29.9,12.2,0000.0,0017.11,0005.59,0004.59
2021-11-30 20:26:00,,0827.4,5.00,0.00,28.1,27.4,00.0,37.0,29.9,12.2,0000.0,0018.16,0005.67,0004.62
2021-11-30 20:27:00,,0827.3,5.01,0.00,28.1,27.4,00.0,37.0,29.9,12.2,0000.0,0019.19,0005.69,0004.65
2021-11-30 20:28:00,,0827.3,4.99,0.00,28.1,27.4,00.0,37.0,29.9,12.1,0000.0,0020.83,0005.73,0004.67
2021-11-30 20:29:00,,0827.2,5.01,0.00,28.1,27.4,00.0,37.0,29.9,12.1,0000.0,0021.29,0005.77,0004.69
2021-11-30 20:30:00,,0827.2,5.01,0.00,28.1,27.4,00.0,37.0,29.8,12.0,0000.0,0020.07,0005.75,0004.71
2021-11-30 20:31:00,,0827.1,4.99,0.00,28.1,27.4,00.0,37.0,29.8,12.0,0000.0,0019.78,0005.72,0004.72
2021-11-30 20:32:00,,0827.1,4.99,0.00,28.1,27.4,00.0,37.0,29.9,12.0,0000.0,0019.38,0005.74,0004.73
2021-11-30 20:33:00,,0827.2,5.01,0.00,28.1,27.5,00.0,37.0,29.9,12.0,0000.0,0019.17,0005.78,0004.74
2021-11-30 20:34:00,,0827.5,4.99,0.00,28.1,27.5,00.0,37.0,29.9,11.9,0000.0,0018.56,0005.81,0004.74
2021-11-30 20:35:00,,0827.0,5.02,0.00,28.1,27.5,00.0,37.0,29.9,11.9,0000.0,0018.10,0005.84,0004.77
2021-11-30 20:36:00,,0827.0,4.99,0.00,28.1,27.5,00.0,37.0,29.9,11.9,0000.0,0018.48,0005.90,0004.78
2021-11-30 20:37:00,,0826.9,4.99,0.00,28.1,27.4,00.0,37.1,29.9,11.9,0000.0,0018.01,0005.88,0004.78
2021-11-30 20:38:00,,0826.9,5.02,0.00,28.1,27.4,00.0,37.1,29.8,12.0,0000.0,0017.52,0005.89,0004.80
2021-11-30 20:39:00,,0826.9,5.00,0.00,28.1,27.4,00.0,37.1,29.8,11.9,0000.0,0017.91,0005.97,0004.82
2021-11-30 20:40:00,,0826.9,5.00,0.00,28.1,27.5,00.0,37.1,29.9,11.8,0000.0,0016.82,0006.01,0004.84
2021-11-30 20:41:00,,0826.9,5.00,0.00,28.1,27.5,00.0,37.1,29.9,11.8,0000.0,0017.07,0006.01,0004.84
2021-11-30 20:42:00,,0826.9,5.00,0.00,28.1,27.5,00.0,37.1,29.9,11.8,0000.0,0016.79,0006.02,0004.86
2021-11-30 20:43:00,,0826.8,4.99,0.00,28.1,27.4,00.0,37.1,29.9,11.7,0000.0,0017.14,0006.03,0004.86
2021-11-30 20:44:00,,0826.8,5.00,0.00,28.1,27.4,00.0,37.1,29.9,11.7,0000.0,0016.83,0006.04,0004.88
2021-11-30 20:45:00,,0826.8,4.99,0.00,28.1,27.4,00.0,37.1,29.9,11.7,0000.0,0016.32,0006.01,0004.89
2021-11-30 20:46:00,,0826.8,5.02,0.00,28.1,27.4,00.0,37.1,29.8,11.8,0000.0,0016.88,0006.03,0004.89
2021-11-30 20:47:00,,0826.7,4.99,0.00,28.1,27.4,00.0,37.1,29.8,11.7,0000.0,0016.78,0006.03,0004.89
2021-11-30 20:48:00,,0826.7,4.99,0.00,28.1,27.4,00.0,37.1,29.9,11.7,0000.0,0017.47,0006.05,0004.90
2021-11-30 20:49:00,,0826.6,5.02,0.00,28.1,27.4,00.0,37.1,29.8,11.8,0000.0,0017.54,0006.09,0004.90
2021-11-30 20:50:00,,0826.5,4.98,0.00,28.1,27.4,00.0,37.1,29.8,11.7,0000.0,0016.95,0006.08,0004.89
2021-11-30 20:51:00,,0826.5,5.01,0.00,28.1,27.5,00.0,37.1,29.8,11.6,0000.0,0016.95,0006.00,0004.88
2021-11-30 20:52:00,,0826.5,4.99,0.00,28.1,27.5,00.0,37.1,29.8,11.6,0000.0,0016.87,0006.02,0004.87
2021-11-30 20:53:00,,0826.5,5.00,0.00,28.1,27.5,00.0,37.1,29.9,11.5,0000.0,0017.65,0006.02,0004.86
2021-11-30 20:54:00,,0826.6,5.01,0.00,28.1,27.5,00.0,37.1,29.9,11.5,0000.0,0017.47,0006.02,0004.86
2021-11-30 20:55:00,,0826.6,4.99,0.00,28.1,27.5,00.0,37.1,29.9,11.5,0000.0,0017.46,0005.97,0004.84
2021-11-30 20:56:00,,0826.6,5.01,0.00,28.1,27.5,00.0,37.1,29.9,11.5,0000.0,0018.19,0005.97,0004.83
2021-11-30 20:57:00,,0826.5,5.00,0.00,28.1,27.5,00.0,37.1,29.9,11.5,0000.0,0017.75,0005.96,0004.83
2021-11-30 20:58:00,,0826.6,5.01,0.00,28.1,27.5,00.0,37.1,29.9,11.5,0000.0,0017.42,0005.93,0004.83
2021-11-30 20:59:00,,0826.7,4.99,0.00,28.1,27.5,00.0,37.1,29.9,11.5,0000.0,0016.86,0005.96,0004.83
